Weather History for Covington, KY

Change the Weather History Date:

Wednesday, August 7, 2013

  Actual Average Record
Temperature  
Mean Temperature 76 °F 76 °F  
Max Temperature 84 °F 85 °F 100 °F (1930)
Min Temperature 67 °F 66 °F 50 °F (2004)
Degree Days  
Heating Degree Days 0 0  
Month to date heating degree days 0 0  
Since 1 June heating degree days 3 15  
Since 1 July heating degree days 2 0  
Cooling Degree Days 11 11  
Month to date cooling degree days 50 77  
Year to date cooling degree days 732 736  
Since 1 June cooling degree days 593 642  
Growing Degree Days 25 (Base 50)    
Moisture  
Dew Point 72 °F    
Average Humidity 85    
Maximum Humidity 100    
Minimum Humidity 69    
Precipitation  
Precipitation 0.00 in 0.11 in 2.75 in (1920)
Month to date precipitation 0.24 0.81  
Year to date precipitation 29.60 27.19  
Snow  
Snow 0.00 in 0.00 in 0.00 in ()
Month to date snowfall 0.0 0.0  
Since 1 June snowfall 0.0 0.0  
Since 1 July snowfall 0.0 0.0  
Snow Depth 0.00 in    
Sea Level Pressure  
Sea Level Pressure 29.93 in    
Wind  
Wind Speed 5 mph (SSW)    
Max Wind Speed 12 mph    
Max Gust Speed 15 mph    
Visibility 5 miles    
Events Fog    
T = Trace of Precipitation, MM = Missing Value Source: NWS Daily Summary

Daily Weather History Graph

Daily Weather History Graph

Search for Another Location

Airport:

Trip Planner

Search our weather history database for the weather conditions in past years. The results will help you decide how hot, cold, wet, or windy it might be!

Date:

Astronomy

Aug. 07, 2013 Rise Set
Actual Time 6:44 AM EDT 8:43 PM EDT
Civil Twilight 6:15 AM EDT 9:12 PM EDT
Nautical Twilight 5:40 AM EDT 9:47 PM EDT
Astronomical Twilight 5:01 AM EDT 10:26 PM EDT
Moon 7:31 AM EDT (8/7) 8:51 PM EDT (8/7)
Length of Visible Light 14h 56m
Length of Day
13h 58m
New Moon, 1% of the Moon is Illuminated
Aug 7
New Moon
Aug 14
First Quarter
Aug 20
Full
Aug 28
Last Quarter
Sep 5
New

Hourly Weather History & Observations

Time (EDT) Temp. Heat Index Dew Point Humidity Pressure Visibility Wind Dir Wind Speed Gust Speed Precip Events Conditions
12:52 AM 71.1 °F - 69.1 °F 93% 29.93 in 9.0 mi South 4.6 mph - N/A   Partly Cloudy
1:52 AM 71.1 °F - 69.1 °F 93% 29.93 in 8.0 mi South 3.5 mph - N/A   Scattered Clouds
2:52 AM 69.1 °F - 69.1 °F 100% 29.93 in 6.0 mi Calm Calm - N/A   Partly Cloudy
3:52 AM 70.0 °F - 70.0 °F 100% 29.92 in 6.0 mi SSW 4.6 mph - N/A   Partly Cloudy
4:22 AM 71.6 °F - 71.6 °F 100% 29.95 in 5.0 mi SSW 5.8 mph - N/A   Mostly Cloudy
4:52 AM 71.1 °F - 71.1 °F 100% 29.91 in 5.0 mi SSW 3.5 mph - N/A   Overcast
5:52 AM 71.1 °F - 70.0 °F 96% 29.91 in 4.0 mi Calm Calm - N/A   Mostly Cloudy
6:00 AM 71.6 °F - 71.6 °F 100% 29.94 in 2.5 mi Calm Calm - N/A   Mostly Cloudy
6:09 AM 71.6 °F - 69.8 °F 94% 29.94 in 4.0 mi Calm Calm - N/A   Scattered Clouds
6:31 AM 69.8 °F - 69.8 °F 100% 29.94 in 2.0 mi South 5.8 mph - N/A   Scattered Clouds
6:46 AM 71.6 °F - 71.6 °F 100% 29.94 in 1.0 mi South 3.5 mph - N/A   Overcast
6:52 AM 71.1 °F - 71.1 °F 100% 29.91 in 1.0 mi South 3.5 mph - N/A   Overcast
6:54 AM 71.6 °F - 71.6 °F 100% 29.94 in 0.2 mi South 3.5 mph - N/A   Overcast
7:11 AM 71.6 °F - 71.6 °F 100% 29.94 in 0.2 mi South 3.5 mph - N/A Fog Fog
7:52 AM 72.0 °F - 72.0 °F 100% 29.92 in 0.1 mi SSW 8.1 mph - N/A Fog Fog
8:28 AM 71.6 °F - 71.6 °F 100% 29.95 in 0.1 mi SW 4.6 mph - N/A Fog Fog
8:52 AM 73.0 °F - 73.0 °F 100% 29.94 in 0.2 mi SW 6.9 mph - N/A Fog Fog
9:16 AM 73.4 °F - 73.4 °F 100% 29.97 in 0.5 mi SW 6.9 mph - N/A   Overcast
9:30 AM 73.4 °F - 73.4 °F 100% 29.96 in 1.0 mi Calm Calm - N/A   Overcast
9:38 AM 73.4 °F - 73.4 °F 100% 29.96 in 2.0 mi Calm Calm - N/A   Overcast
9:52 AM 73.0 °F - 73.0 °F 100% 29.94 in 2.5 mi Variable 3.5 mph - N/A   Overcast
10:16 AM 75.2 °F - 73.4 °F 94% 29.96 in 2.5 mi South 8.1 mph - N/A   Overcast
10:35 AM 78.8 °F - 73.4 °F 83% 29.97 in 5.0 mi South 8.1 mph - N/A   Haze
10:52 AM 78.1 °F - 72.0 °F 81% 29.94 in 6.0 mi WSW 9.2 mph - N/A   Haze
11:52 AM 79.0 °F - 73.0 °F 82% 29.94 in 7.0 mi SSW 4.6 mph - N/A   Overcast
12:29 PM 78.8 °F - 71.6 °F 78% 29.96 in 6.0 mi SW 5.8 mph - N/A   Haze
12:52 PM 79.0 °F - 73.0 °F 82% 29.94 in 7.0 mi SSW 8.1 mph - N/A   Overcast
1:52 PM 79.0 °F - 73.0 °F 82% 29.93 in 9.0 mi SW 4.6 mph - N/A   Overcast
2:52 PM 81.0 °F 85.8 °F 73.0 °F 77% 29.92 in 10.0 mi South 4.6 mph - N/A   Mostly Cloudy
3:52 PM 82.0 °F 86.7 °F 72.0 °F 71% 29.90 in 10.0 mi SSW 9.2 mph - N/A   Mostly Cloudy
4:52 PM 82.9 °F 88.8 °F 73.0 °F 72% 29.87 in 10.0 mi SW 8.1 mph - N/A   Mostly Cloudy
5:52 PM 82.9 °F 88.8 °F 73.0 °F 72% 29.87 in 10.0 mi SSW 8.1 mph - N/A   Mostly Cloudy
6:52 PM 82.0 °F 87.9 °F 73.9 °F 76% 29.88 in 10.0 mi Calm Calm - N/A   Mostly Cloudy
7:52 PM 82.9 °F 88.8 °F 73.0 °F 72% 29.87 in 10.0 mi Calm Calm - N/A   Mostly Cloudy
8:52 PM 77.0 °F - 75.0 °F 94% 29.88 in 8.0 mi Calm Calm - N/A   Scattered Clouds
9:52 PM 75.0 °F - 73.0 °F 94% 29.90 in 9.0 mi SSE 3.5 mph - N/A   Scattered Clouds
10:52 PM 75.9 °F - 73.9 °F 94% 29.91 in 9.0 mi SSW 5.8 mph - N/A   Scattered Clouds
11:52 PM 75.0 °F - 73.0 °F 94% 29.91 in 7.0 mi SSW 6.9 mph - N/A   Partly Cloudy